Theta_e
297 297 297 297 298 299 299 301 301 300 300 301 301 301 301 301 302 305 306 306 304 303 303 301 300 301 300 298 296 295 293 294 293 290 283 284 284 284 284 286 287 286 285
297 297 297 297 297 297 297 299 299 299 298 300 299 299 300 302 304 303 303 303 303 300 301 299 299 299 297 298 295 293 292 292 292 291 281 282 283 284 284 284 284 285 284
295 295 296 296 296 296 297 297 297 297 296 296 295 296 299 302 302 302 303 302 301 300 300 298 298 296 295 296 294 293 292 291 289 286 280 282 281 283 281 283 282 282 282
294 294 294 294 295 295 295 295 295 295 294 293 293 295 294 298 299 299 299 298 298 298 298 297 296 296 295 294 290 290 288 286 285 285 281 280 281 281 282 280 279 280 279
291 291 291 292 292 292 291 290 290 289 291 292 291 289 290 291 295 294 293 294 294 294 291 291 292 291 291 293 289 287 286 285 284 284 281 279 279 278 278 279 279 279 279
289 288 288 286 286 286 287 287 287 288 288 288 288 287 287 289 292 294 293 290 289 289 289 288 288 286 288 291 292 291 288 286 284 284 281 280 279 279 280 279 279 278 277
285 286 285 285 285 286 285 285 286 287 286 286 286 286 285 286 291 293 292 288 287 287 287 287 285 285 285 286 290 290 289 290 289 284 281 280 279 281 280 280 280 280 279
286 284 282 284 283 283 284 284 284 285 283 282 282 282 281 282 289 291 291 286 285 285 285 285 285 284 284 284 285 284 284 285 284 284 283 283 283 283 283 283 281 281 279
285 285 284 282 282 282 281 281 281 279 278 277 279 276 277 284 287 289 289 285 284 283 284 284 284 283 285 287 284 282 282 283 286 287 287 287 288 287 285 282 279 278 276
284 284 282 281 281 283 282 280 278 275 278 278 280 283 283 284 286 288 287 283 282 281 282 282 283 283 286 287 283 282 281 282 283 283 284 286 286 285 286 283 280 278 276
281 280 278 278 277 278 277 275 273 273 276 275 278 280 281 282 283 288 286 283 282 281 281 281 282 286 287 287 285 283 283 283 285 282 282 282 282 282 283 283 281 280 275
278 277 276 278 275 277 269 271 269 270 272 277 279 279 279 281 284 287 286 284 283 281 280 281 282 286 287 287 284 286 287 284 282 281 279 279 279 279 278 278 279 279 278
276 276 279 280 274 272 269 270 270 268 270 275 278 278 277 279 283 287 286 286 284 281 282 283 285 286 287 287 287 287 283 281 280 278 278 277 276 276 277 275 274 274 273
273 275 279 279 274 270 272 272 275 275 278 278 278 279 279 279 281 283 284 284 283 282 283 283 285 286 287 285 284 285 284 282 281 280 279 277 277 275 274 273 270 270 268
274 274 276 275 272 272 275 275 275 276 280 279 279 279 278 278 281 285 284 282 281 282 282 282 282 281 281 281 281 281 281 281 280 278 276 273 272 271 271 270 269 268 266
277 278 279 279 274 275 279 279 284 284 284 284 283 281 279 282 286 286 285 285 285 285 282 280 280 280 278 277 277 277 276 273 271 271 270 270 269 270 269 268 267 264 264
276 279 279 278 275 274 276 277 280 283 286 286 286 285 284 285 286 286 286 286 286 284 280 279 277 277 276 274 273 271 268 267 267 269 268 267 268 267 265 265 265 265 263
270 275 279 277 273 273 277 277 277 277 275 275 281 283 286 286 286 286 284 281 276 276 275 274 272 271 268 267 263 263 263 263 263 263 263 261 260 261 262 263 263 260 261
269 273 278 277 278 277 277 276 275 274 273 272 273 275 274 280 280 279 279 274 272 269 265 263 261 260 259 259 258 258 258 258 257 256 256 256 258 259 259 260 262 261 257
269 273 278 279 279 278 276 274 273 272 271 271 270 269 269 270 267 265 265 265 263 260 261 261 257 255 253 254 254 253 255 254 253 253 253 255 256 257 258 255 254 254 252
270 274 278 279 278 276 275 274 272 271 270 269 269 271 271 266 263 262 261 260 259 257 257 257 255 253 248 248 249 250 250 250 248 249 247 246 246 248 246 251 249 250 252
271 273 274 276 275 275 273 272 271 270 269 268 267 270 270 264 262 260 258 256 253 252 250 252 250 249 248 250 248 248 248 247 244 245 245 245 244 245 246 249 251 252 250
269 270 271 271 271 271 270 270 269 267 266 264 264 263 261 260 259 258 256 253 254 253 250 250 251 250 248 247 245 248 248 247 246 244 245 244 244 245 245 247 248 249 250
269 269 269 268 269 268 268 266 265 265 263 262 261 260 260 258 258 257 255 254 254 250 250 251 250 248 245 244 242 241 241 243 241 244 245 245 245 246 245 246 248 249 250
266 266 266 266 266 265 265 264 263 262 261 261 259 258 258 257 256 254 253 252 251 252 250 248 246 246 245 245 244 242 243 252 244 244 242 245 245 244 244 245 247 248 249
264 264 263 264 263 263 263 262 261 260 260 259 258 256 256 256 255 253 252 252 250 248 246 245 244 244 245 245 246 248 250 254 250 251 245 245 245 245 244 245 247 248 250
Wind_Speed
5 5 6 6 6 5 6 7 8 7 7 9 9 10 11 10 9 10 12 12 11 12 11 12 14 13 10 8 9 9 10 9 12 3 1 2 9 11 9 10 11 10 8
6 7 7 7 5 6 7 7 6 8 7 9 8 9 9 10 10 11 13 11 13 12 13 12 13 9 12 12 9 12 11 11 10 15 3 4 4 10 9 10 7 7 7
6 7 8 8 7 7 7 7 7 7 8 7 7 8 10 11 11 12 13 12 13 13 12 12 14 12 12 10 10 10 9 7 8 3 3 1 2 5 4 4 6 6 8
8 7 8 8 7 7 7 7 7 7 7 7 7 8 8 10 11 11 11 11 11 11 11 10 11 11 12 11 9 10 6 6 6 6 3 3 2 3 3 5 3 4 5
6 6 6 6 7 8 8 8 7 7 7 7 7 7 7 7 8 9 8 10 9 9 6 7 7 8 11 10 7 7 8 7 6 7 4 3 3 3 6 4 6 4 2
7 8 8 6 6 6 7 7 7 7 7 6 7 7 7 6 11 13 10 7 6 6 7 6 6 5 8 12 15 13 13 10 10 7 4 4 4 5 5 5 5 3 3
6 7 7 7 9 9 8 7 7 7 6 7 6 6 6 6 9 11 13 5 5 5 6 5 4 3 6 6 12 13 13 14 9 7 8 6 6 9 8 7 4 3 3
10 6 4 6 6 7 8 8 7 5 4 5 5 5 3 5 8 9 9 4 4 5 5 5 5 5 6 6 5 5 4 4 7 4 7 6 3 7 8 4 4 5 3
9 10 9 7 9 8 7 7 5 3 3 3 3 3 3 4 6 7 5 3 2 3 3 4 4 5 8 13 7 7 7 6 9 10 8 11 10 15 10 7 4 5 2
10 11 9 8 8 11 9 8 4 3 3 3 3 3 4 4 5 7 5 2 3 2 1 2 5 5 10 12 7 8 7 7 7 6 6 7 7 8 13 5 6 3 3
7 8 7 6 6 7 6 3 4 4 3 2 1 2 3 4 3 4 7 2 1 2 1 1 0 6 8 10 9 6 6 8 9 6 5 4 4 3 3 3 4 3 3
8 8 7 8 5 5 4 4 3 3 2 3 3 2 2 3 2 8 8 5 5 3 2 1 2 5 6 11 7 10 12 8 5 3 3 2 1 2 2 2 3 3 3
10 10 9 10 6 4 4 5 3 1 2 2 2 2 2 2 1 10 8 7 7 3 2 3 4 5 9 9 11 13 9 4 5 3 2 2 2 2 4 3 7 8 7
9 9 10 10 7 4 2 2 4 3 3 2 2 2 1 2 0 3 3 4 7 4 4 3 4 7 8 6 3 6 5 4 3 2 2 2 2 2 2 2 2 2 3
7 7 8 6 5 4 3 3 3 3 3 2 1 0 1 2 1 6 5 4 3 5 4 3 4 4 5 4 3 4 3 3 2 1 1 2 2 2 2 2 2 2 2
8 7 9 8 3 3 3 3 6 6 5 3 5 4 1 3 6 10 11 11 11 10 4 4 5 4 3 1 2 2 3 3 2 2 2 2 2 2 2 2 2 2 2
10 10 7 7 4 3 2 1 3 5 8 5 6 8 8 7 9 8 9 9 12 7 3 5 5 4 4 3 3 3 2 2 2 3 2 2 3 2 3 1 1 2 1
10 14 9 6 4 3 3 2 1 2 3 3 12 14 13 8 8 13 14 10 6 7 4 5 4 4 3 3 3 2 2 3 3 3 3 3 2 3 2 1 1 2 2
8 9 9 6 5 5 4 4 3 3 3 3 3 9 11 16 16 14 11 5 6 5 3 5 3 3 3 3 1 2 3 3 3 3 3 2 3 3 2 2 2 3 4
9 15 12 7 6 5 5 5 5 3 3 4 4 3 2 4 4 4 5 5 6 4 3 5 3 3 3 3 2 2 4 4 3 3 3 3 3 2 2 2 2 2 2
7 9 10 6 6 6 7 7 6 5 5 5 4 3 7 6 4 3 4 5 4 4 3 3 3 3 2 2 3 3 3 3 2 3 2 2 2 2 2 3 3 3 3
7 6 4 5 6 7 6 7 6 7 7 6 4 6 11 4 4 4 4 4 2 2 1 3 2 2 2 2 3 3 3 2 1 2 2 2 2 3 3 3 2 2 2
4 3 2 3 5 9 7 6 6 7 7 6 4 4 3 4 3 3 4 2 3 2 2 2 2 2 1 1 1 2 3 3 3 4 3 3 2 2 2 2 3 2 2
2 2 3 4 5 6 6 7 6 9 7 6 5 3 4 3 3 3 3 2 2 1 1 1 1 2 1 0 1 2 2 1 2 3 5 4 3 3 2 2 3 3 2
2 3 4 4 5 5 7 6 6 6 6 5 4 2 3 4 3 2 2 1 0 0 1 1 1 1 2 3 3 4 4 4 4 4 3 4 4 4 3 3 3 2 3
4 5 5 5 4 5 6 6 6 5 5 5 4 3 2 2 2 2 2 2 1 1 3 2 3 4 5 4 6 6 6 6 5 6 4 4 4 3 3 4 4 3 3
Wind_Direction
337 303 282 279 265 256 250 254 244 241 221 222 221 220 223 221 217 224 237 234 229 231 223 224 228 226 229 222 221 224 225 224 244 221 83 140 184 193 184 188 177 177 201
323 298 304 297 298 274 262 265 257 246 234 232 223 222 221 222 226 226 238 233 233 232 233 229 232 220 225 226 212 219 220 217 227 241 147 158 176 191 176 178 176 183 198
327 337 329 319 314 291 280 275 267 261 251 244 229 228 234 239 238 231 236 234 235 234 231 226 231 223 225 224 213 221 220 217 220 201 157 116 101 172 139 173 170 190 201
347 348 341 331 316 297 289 279 270 259 257 251 237 234 228 234 236 235 232 233 232 231 235 235 231 230 231 229 214 216 203 196 191 196 160 148 146 145 146 163 147 187 181
327 321 307 303 307 308 304 295 284 275 266 259 254 244 235 226 231 221 220 227 234 240 226 225 229 226 222 221 203 206 189 200 192 194 176 141 147 138 172 161 184 160 147
336 325 317 315 312 309 304 296 285 276 271 263 255 248 242 234 233 228 223 224 222 226 238 233 229 230 234 230 219 211 199 196 200 190 165 156 136 151 160 169 139 147 181
307 308 316 326 322 318 313 308 302 294 289 280 278 267 255 243 236 226 225 219 226 230 234 228 225 207 211 207 223 215 217 222 210 173 160 161 160 175 159 154 170 134 157
325 301 271 294 292 303 312 305 300 291 284 284 278 272 258 263 251 239 235 207 219 219 216 211 203 194 198 186 166 148 154 154 143 144 165 158 130 150 173 153 147 125 94
321 320 325 325 321 310 293 288 284 278 285 269 268 272 241 265 251 242 221 187 190 218 210 197 183 186 204 197 161 151 148 129 142 129 134 158 168 168 150 128 146 150 168
313 314 312 313 309 308 305 307 284 271 256 260 260 298 266 258 264 246 200 147 171 171 170 172 190 189 200 191 155 150 140 136 129 119 108 113 125 147 156 159 156 165 123
291 292 290 288 290 280 292 278 297 291 290 299 266 341 302 280 263 212 154 120 132 123 120 119 110 212 193 164 153 150 140 128 124 107 117 123 132 160 177 174 168 162 152
300 298 296 296 295 297 285 288 292 287 285 291 292 312 319 309 248 148 138 136 157 134 146 151 166 193 175 158 127 132 125 117 104 102 95 83 118 172 155 129 121 97 63
312 305 304 302 294 290 291 288 291 308 270 267 263 271 293 315 281 134 118 114 118 108 124 147 163 167 168 152 138 139 113 108 107 107 127 169 195 166 124 86 67 78 70
289 291 295 294 293 291 285 272 284 288 257 204 221 244 285 297 135 94 82 108 96 89 107 91 92 109 93 99 104 120 107 120 133 155 168 145 130 98 92 103 117 133 98
285 284 282 276 274 281 257 234 229 255 256 250 203 195 226 265 12 110 95 86 77 92 84 77 69 48 78 71 62 72 84 78 78 114 120 117 109 105 104 111 104 100 118
287 288 286 283 259 258 268 290 260 243 241 204 160 155 232 191 138 125 121 110 111 108 75 90 86 84 75 72 105 89 68 60 62 82 78 101 116 113 112 82 87 105 129
276 279 263 253 237 228 230 323 105 73 86 128 164 154 157 148 131 134 136 124 129 95 62 65 71 67 65 52 37 45 61 27 57 67 69 80 98 94 111 120 117 121 107
269 271 263 229 199 183 158 133 79 109 93 52 53 73 82 126 132 119 113 97 68 51 69 70 70 62 52 64 34 55 50 47 54 61 73 77 84 108 91 121 132 125 96
270 269 255 209 188 172 155 131 103 100 94 86 58 58 35 67 69 65 70 85 100 82 56 77 63 68 65 70 68 58 73 64 66 69 53 68 71 82 59 70 93 99 117
268 260 243 206 184 167 148 133 117 121 113 95 72 57 16 45 46 35 41 65 79 82 75 82 60 67 75 73 62 65 66 50 50 61 65 65 65 70 111 124 125 126 154
270 273 236 200 177 159 154 147 141 146 114 89 86 99 98 104 103 75 72 60 66 64 82 92 85 78 75 80 75 69 77 77 73 91 92 100 114 88 86 91 115 103 119
262 249 226 186 152 147 150 135 147 125 112 107 75 82 95 76 92 96 87 78 68 76 80 101 100 100 98 105 122 98 92 105 141 109 98 117 121 113 123 101 115 135 137
244 210 185 147 131 129 120 133 128 116 112 105 105 97 77 87 84 83 92 102 82 72 47 76 106 99 84 70 103 139 149 184 194 153 149 155 140 130 135 140 150 152 155
216 154 143 125 124 122 135 120 118 115 119 119 114 113 108 102 91 90 84 82 85 66 68 110 129 136 141 246 242 228 226 207 161 178 160 144 154 149 129 155 171 179 165
73 93 101 110 110 128 110 111 112 111 110 111 106 92 105 109 112 97 118 137 145 5 304 283 249 250 247 256 259 253 244 253 184 174 145 135 160 164 170 178 172 181 180
74 81 86 85 95 94 104 112 108 110 116 116 115 96 114 130 136 158 181 186 201 260 278 286 281 267 271 260 253 242 229 229 217 198 170 156 166 198 183 193 191 178 183